GW0748 Weather Reports


time (UTC)temp
C
wind
direction
speed
KPH
gust
KPH
rain 1hr
cm
rain 24hr
cm
rain mn
cm
humidity
%
barometer
mb
20260504002804 11 334 4.8 11.3 0.00 0.00 0.00 91 1020.7
20260504002725 11 334 4.8 11.3 0.00 0.00 0.00 90 1020.7
20260504002604 11 335 4.8 11.3 0.00 0.00 0.00 90 1020.6
20260504002504 11 335 4.8 11.3 0.00 0.00 0.00 91 1020.6
20260504002404 11 335 4.8 11.3 0.00 0.00 0.00 91 1020.5
20260504002304 11 336 4.8 9.7 0.00 0.00 0.00 91 1020.6
20260504002225 11 334 4.8 9.7 0.00 0.00 0.00 91 1020.6
20260504002104 11 335 4.8 9.7 0.00 0.00 0.00 91 1020.6
20260504002004 11 336 4.8 8.0 0.00 0.00 0.00 91 1020.7
20260504001904 11 337 4.8 8.0 0.00 0.00 0.00 90 1020.7
20260504001804 11 335 4.8 8.0 0.00 0.00 0.00 90 1020.6
20260504001725 11 336 4.8 8.0 0.00 0.00 0.00 90 1020.6
20260504001605 11 334 4.8 9.7 0.00 0.00 0.00 90 1020.7
20260504001504 11 333 4.8 9.7 0.00 0.00 0.00 90 1020.7
20260504001405 11 331 4.8 9.7 0.00 0.00 0.00 90 1020.7
20260504001305 11 331 4.8 9.7 0.00 0.00 0.00 90 1020.6
20260504001204 11 332 4.8 9.7 0.00 0.00 0.00 90 1020.8
20260504001104 11 331 4.8 9.7 0.00 0.00 0.00 91 1020.9
20260504001004 11 330 4.8 9.7 0.00 0.00 0.00 91 1020.8
20260504000905 11 332 4.8 9.7 0.00 0.00 0.00 90 1020.7
20260504000804 11 331 4.8 9.7 0.00 0.00 0.00 90 1020.8
20260504000725 11 329 4.8 9.7 0.00 0.00 0.00 90 1020.8
20260504000604 11 329 4.8 8.0 0.00 0.00 0.00 90 1020.9
20260504000504 11 330 4.8 8.0 0.00 0.00 0.00 90 1020.7
20260504000404 11 330 4.8 9.7 0.00 0.00 0.00 90 1020.8
20260504000304 11 331 4.8 9.7 0.00 0.00 0.00 90 1020.8
20260504000204 11 332 4.8 9.7 0.00 0.00 0.00 90 1020.8
20260504000104 11 334 4.8 9.7 0.00 0.00 0.00 90 1020.8
20260504000025 11 333 4.8 9.7 0.00 0.00 0.00 90 1020.8
20260503235905 11 333 4.8 9.7 0.00 0.00 0.00 90 1020.7
20260503235826 11 333 4.8 9.7 0.00 0.00 0.00 90 1020.7
20260503235704 11 337 4.8 9.7 0.00 0.00 0.00 90 1020.8
20260503235604 11 338 4.8 9.7 0.00 0.00 0.00 90 1020.7
20260503235504 11 338 4.8 9.7 0.00 0.00 0.00 90 1020.9
20260503235426 11 338 4.8 9.7 0.00 0.00 0.00 90 1020.9
20260503235325 11 339 4.8 9.7 0.00 0.00 0.00 89 1020.8
20260503235225 11 340 4.8 9.7 0.00 0.00 0.00 89 1020.8
20260503235104 11 338 4.8 9.7 0.00 0.00 0.00 89 1020.9
20260503235004 11 338 4.8 9.7 0.00 0.00 0.00 89 1020.9
20260503234905 11 338 4.8 9.7 0.00 0.00 0.00 89 1020.9
20260503234804 11 337 4.8 9.7 0.00 0.00 0.00 89 1020.9
20260503234725 11 336 4.8 9.7 0.00 0.00 0.00 89 1020.9
20260503234604 11 335 4.8 9.7 0.00 0.00 0.00 89 1020.8
20260503234504 11 334 4.8 9.7 0.00 0.00 0.00 88 1020.8
20260503234425 11 335 4.8 9.7 0.00 0.00 0.00 89 1020.8
20260503234305 11 333 4.8 11.3 0.00 0.00 0.00 88 1021.0
20260503234204 11 331 6.4 11.3 0.00 0.00 0.00 88 1020.9
20260503234104 11 331 6.4 11.3 0.00 0.00 0.00 88 1020.9
20260503234004 11 333 6.4 11.3 0.00 0.00 0.00 88 1020.8
20260503233906 11 331 6.4 11.3 0.00 0.00 0.00 88 1020.9
20260503233825 11 330 6.4 11.3 0.00 0.00 0.00 88 1020.9
20260503233704 11 331 6.4 11.3 0.00 0.00 0.00 88 1021.0
20260503233604 11 332 4.8 11.3 0.00 0.00 0.00 88 1020.9
20260503233504 11 333 6.4 11.3 0.00 0.00 0.00 88 1020.9
20260503233405 11 333 6.4 11.3 0.00 0.00 0.00 88 1021.0
20260503233305 11 333 6.4 11.3 0.00 0.00 0.00 88 1020.8
20260503233204 11 333 4.8 11.3 0.00 0.00 0.00 88 1021.2
20260503233127 11 334 4.8 11.3 0.00 0.00 0.00 88 1021.2
20260503233004 11 332 4.8 11.3 0.00 0.00 0.00 87 1021.2
20260503232904 11 333 4.8 9.7 0.00 0.00 0.00 87 1021.0
20260503232805 11 334 4.8 9.7 0.00 0.00 0.00 87 1021.2
20260503232725 11 334 4.8 9.7 0.00 0.00 0.00 88 1021.2
20260503232604 11 333 4.8 9.7 0.00 0.00 0.00 87 1021.2
20260503232504 11 332 4.8 9.7 0.00 0.00 0.00 87 1021.2
20260503232425 11 332 4.8 9.7 0.00 0.00 0.00 87 1021.2
20260503232305 11 333 4.8 9.7 0.00 0.00 0.00 87 1020.9
20260503232204 11 333 4.8 9.7 0.00 0.00 0.00 87 1021.0
20260503232104 11 333 4.8 9.7 0.00 0.00 0.00 87 1021.0
20260503232004 11 335 4.8 9.7 0.00 0.00 0.00 87 1020.9
20260503231904 11 338 4.8 9.7 0.00 0.00 0.00 87 1020.9
20260503231804 11 338 4.8 9.7 0.00 0.00 0.00 87 1021.2
20260503231704 12 339 4.8 9.7 0.00 0.00 0.00 87 1021.2
20260503231606 12 338 4.8 9.7 0.00 0.00 0.00 87 1021.2
20260503231526 12 338 4.8 9.7 0.00 0.00 0.00 87 1021.2
20260503231404 12 339 4.8 9.7 0.00 0.00 0.00 87 1021.2
20260503231305 12 339 4.8 9.7 0.00 0.00 0.00 86 1021.3
20260503231204 12 339 4.8 8.0 0.00 0.00 0.00 86 1021.3
20260503231104 12 339 4.8 9.7 0.00 0.00 0.00 86 1021.1
20260503231005 12 343 4.8 9.7 0.00 0.00 0.00 86 1021.2
20260503230925 12 344 3.2 9.7 0.00 0.00 0.00 86 1021.2
20260503230804 12 343 3.2 9.7 0.00 0.00 0.00 86 1021.1
20260503230704 12 343 3.2 9.7 0.00 0.00 0.00 86 1021.1
20260503230604 12 342 3.2 9.7 0.00 0.00 0.00 86 1021.3
20260503230504 12 346 3.2 9.7 0.00 0.00 0.00 86 1021.3
20260503230425 12 346 3.2 9.7 0.00 0.00 0.00 85 1021.3
20260503230304 12 345 4.8 9.7 0.00 0.00 0.00 85 1021.2
20260503230204 12 342 4.8 9.7 0.00 0.00 0.00 85 1021.2
20260503230106 12 342 4.8 9.7 0.00 0.00 0.00 85 1021.3
20260503230004 12 340 4.8 9.7 0.00 0.00 0.00 85 1021.2
20260503225904 12 338 4.8 9.7 0.00 0.00 0.00 86 1021.2
20260503225804 12 337 4.8 9.7 0.00 0.00 0.00 86 1021.3
20260503225704 12 335 4.8 9.7 0.00 0.00 0.00 86 1021.1
20260503225604 12 336 4.8 8.0 0.00 0.00 0.00 86 1021.1
20260503225526 12 336 3.2 8.0 0.00 0.00 0.00 86 1021.1
20260503225405 12 336 3.2 8.0 0.00 0.00 0.00 86 1021.0
20260503225305 12 336 3.2 8.0 0.00 0.00 0.00 86 1021.1
20260503225205 12 339 3.2 8.0 0.00 0.00 0.00 86 1021.4
20260503225105 12 339 3.2 8.0 0.00 0.00 0.00 86 1021.2
20260503225004 12 332 3.2 8.0 0.00 0.00 0.00 85 1021.1
20260503224925 12 335 3.2 8.0 0.00 0.00 0.00 86 1021.1
20260503224804 12 331 3.2 8.0 0.00 0.00 0.00 85 1021.4
20260503224704 12 332 3.2 8.0 0.00 0.00 0.00 85 1021.4
20260503224604 12 335 3.2 8.0 0.00 0.00 0.00 85 1021.4
20260503224526 12 333 3.2 8.0 0.00 0.00 0.00 85 1021.4
20260503224404 12 329 3.2 8.0 0.00 0.00 0.00 85 1021.4
20260503224304 12 326 3.2 8.0 0.00 0.00 0.00 86 1021.3
20260503224204 12 324 3.2 8.0 0.00 0.00 0.00 85 1021.5
20260503224105 12 321 3.2 8.0 0.00 0.00 0.00 85 1021.4
20260503224004 12 320 3.2 8.0 0.00 0.00 0.00 85 1021.3
20260503223904 12 321 3.2 8.0 0.00 0.00 0.00 85 1021.4
20260503223804 12 321 3.2 8.0 0.00 0.00 0.00 84 1021.5
20260503223704 12 321 3.2 8.0 0.00 0.00 0.00 84 1021.5
20260503223604 12 320 3.2 8.0 0.00 0.00 0.00 84 1021.6
20260503223505 12 320 3.2 6.4 0.00 0.00 0.00 84 1021.4
20260503223404 12 320 3.2 6.4 0.00 0.00 0.00 84 1021.5
20260503223304 12 323 3.2 6.4 0.00 0.00 0.00 84 1021.5
20260503223204 12 329 1.6 6.4 0.00 0.00 0.00 84 1021.5
20260503223104 12 338 1.6 6.4 0.00 0.00 0.00 84 1021.2
20260503223004 12 343 1.6 4.8 0.00 0.00 0.00 83 1021.4
20260503222925 12 349 1.6 4.8 0.00 0.00 0.00 83 1021.4
20260503222804 12 354 1.6 4.8 0.00 0.00 0.00 83 1021.3
20260503222705 12 360 1.6 4.8 0.00 0.00 0.00 83 1021.3
20260503222625 12 360 1.6 4.8 0.00 0.00 0.00 83 1021.3
20260503222504 12 15 1.6 4.8 0.00 0.00 0.00 83 1021.3
20260503222425 12 22 1.6 4.8 0.00 0.00 0.00 83 1021.3
20260503222304 12 26 1.6 4.8 0.00 0.00 0.00 83 1021.4
20260503222205 12 20 1.6 4.8 0.00 0.00 0.00 83 1021.4
20260503222104 12 13 1.6 6.4 0.00 0.00 0.00 83 1021.5
20260503222004 12 12 3.2 6.4 0.00 0.00 0.00 82 1021.3
20260503221904 12 6 3.2 6.4 0.00 0.00 0.00 82 1021.3
20260503221825 12 2 3.2 6.4 0.00 0.00 0.00 82 1021.3
20260503221705 12 2 3.2 6.4 0.00 0.00 0.00 83 1021.2
20260503221604 12 358 3.2 6.4 0.00 0.00 0.00 83 1021.1
20260503221504 12 356 3.2 6.4 0.00 0.00 0.00 83 1021.2
20260503221425 12 354 3.2 6.4 0.00 0.00 0.00 83 1021.2
20260503221304 12 353 3.2 6.4 0.00 0.00 0.00 82 1021.1
20260503221225 12 353 3.2 6.4 0.00 0.00 0.00 82 1021.1
20260503221104 12 351 3.2 6.4 0.00 0.00 0.00 83 1021.3
20260503221004 12 353 3.2 6.4 0.00 0.00 0.00 82 1021.1
20260503220904 12 359 1.6 6.4 0.00 0.00 0.00 83 1021.2
20260503220804 12 2 1.6 6.4 0.00 0.00 0.00 82 1021.2
20260503220704 12 360 1.6 6.4 0.00 0.00 0.00 82 1021.3
20260503220604 12 351 1.6 9.7 0.00 0.00 0.00 83 1021.3
20260503220504 12 352 1.6 9.7 0.00 0.00 0.00 82 1021.2
20260503220404 13 350 1.6 9.7 0.00 0.00 0.00 83 1021.0
20260503220325 13 352 1.6 9.7 0.00 0.00 0.00 83 1021.0
20260503220225 13 350 1.6 9.7 0.00 0.00 0.00 82 1021.1
20260503220105 13 359 1.6 9.7 0.00 0.00 0.00 81 1021.1
20260503220026 13 360 3.2 9.7 0.00 0.00 0.00 81 1021.1
20260503215904 13 357 3.2 9.7 0.00 0.00 0.00 81 1021.1
20260503215804 13 356 3.2 9.7 0.00 0.00 0.00 82 1021.1
20260503215704 13 355 3.2 9.7 0.00 0.00 0.00 83 1021.2
20260503215604 13 360 3.2 6.4 0.00 0.00 0.00 81 1021.1
20260503215504 13 353 3.2 6.4 0.00 0.00 0.00 82 1021.1
20260503215404 13 356 3.2 6.4 0.00 0.00 0.00 82 1021.1
20260503215304 13 356 3.2 6.4 0.00 0.00 0.00 82 1021.2
20260503215225 13 358 3.2 6.4 0.00 0.00 0.00 82 1021.2
20260503215104 13 349 3.2 6.4 0.00 0.00 0.00 82 1021.2
20260503215004 13 345 3.2 6.4 0.00 0.00 0.00 82 1021.2
20260503214904 13 336 3.2 6.4 0.00 0.00 0.00 82 1021.1
20260503214806 13 336 3.2 6.4 0.00 0.00 0.00 82 1021.1
20260503214706 13 340 3.2 6.4 0.00 0.00 0.00 82 1021.1
20260503214625 13 335 3.2 6.4 0.00 0.00 0.00 82 1021.1
20260503214525 13 334 3.2 8.0 0.00 0.00 0.00 82 1020.9
20260503214404 13 330 3.2 9.7 0.00 0.00 0.00 82 1021.0
20260503214304 13 329 3.2 9.7 0.00 0.00 0.00 82 1021.2
20260503214204 13 324 3.2 9.7 0.00 0.00 0.00 82 1021.0
20260503214104 13 322 3.2 9.7 0.00 0.00 0.00 82 1021.0
20260503214026 13 321 3.2 9.7 0.00 0.00 0.00 82 1021.0
20260503213906 13 325 3.2 9.7 0.00 0.00 0.00 82 1020.8
20260503213825 13 322 3.2 9.7 0.00 0.00 0.00 82 1020.8
20260503213704 13 317 4.8 12.9 0.00 0.00 0.00 81 1021.1
20260503213604 13 317 4.8 12.9 0.00 0.00 0.00 82 1021.0
20260503213504 13 319 4.8 12.9 0.00 0.00 0.00 81 1020.9
20260503213404 13 318 4.8 14.5 0.00 0.00 0.00 81 1021.1
20260503213304 13 314 4.8 14.5 0.00 0.00 0.00 82 1021.0
20260503213205 13 315 4.8 14.5 0.00 0.00 0.00 82 1020.9
20260503213105 13 316 4.8 14.5 0.00 0.00 0.00 82 1021.1
20260503213005 13 312 4.8 14.5 0.00 0.00 0.00 82 1020.9
20260503212904 13 307 4.8 14.5 0.00 0.00 0.00 82 1020.7
20260503212804 13 306 4.8 14.5 0.00 0.00 0.00 81 1020.8
20260503212704 13 307 4.8 14.5 0.00 0.00 0.00 81 1020.8
20260503212604 13 307 4.8 14.5 0.00 0.00 0.00 81 1020.8
20260503212505 13 305 4.8 14.5 0.00 0.00 0.00 81 1020.9
20260503212406 13 301 4.8 14.5 0.00 0.00 0.00 81 1020.8
20260503212305 13 300 4.8 11.3 0.00 0.00 0.00 80 1020.9
20260503212204 13 300 4.8 14.5 0.00 0.00 0.00 80 1020.8
20260503212104 13 300 4.8 14.5 0.00 0.00 0.00 79 1020.9
20260503212025 13 304 4.8 14.5 0.00 0.00 0.00 78 1020.9
20260503211904 13 307 4.8 14.5 0.00 0.00 0.00 78 1020.8
20260503211804 13 305 4.8 14.5 0.00 0.00 0.00 79 1020.8
20260503211704 13 305 4.8 14.5 0.00 0.00 0.00 78 1020.6
20260503211604 13 303 4.8 14.5 0.00 0.00 0.00 78 1020.7
20260503211504 13 303 4.8 14.5 0.00 0.00 0.00 78 1020.7
20260503211404 13 301 4.8 14.5 0.00 0.00 0.00 77 1020.9
20260503211325 13 303 4.8 14.5 0.00 0.00 0.00 76 1020.9
20260503211204 13 299 4.8 12.9 0.00 0.00 0.00 75 1020.7
20260503211125 13 297 4.8 12.9 0.00 0.00 0.00 75 1020.7
20260503211004 13 293 4.8 12.9 0.00 0.00 0.00 75 1020.8
20260503210904 13 291 4.8 12.9 0.00 0.00 0.00 75 1020.8
20260503210804 13 291 4.8 12.9 0.00 0.00 0.00 75 1020.9
20260503210725 13 288 4.8 12.9 0.00 0.00 0.00 75 1020.9
20260503210605 13 290 4.8 12.9 0.00 0.00 0.00 75 1020.8
20260503210525 13 289 4.8 12.9 0.00 0.00 0.00 75 1020.8
20260503210404 13 285 4.8 12.9 0.00 0.00 0.00 76 1020.7
20260503210305 13 282 4.8 12.9 0.00 0.00 0.00 76 1020.8
20260503210204 13 280 4.8 12.9 0.00 0.00 0.00 75 1020.8
20260503210104 13 280 4.8 12.9 0.00 0.00 0.00 76 1020.8
20260503210005 13 278 6.4 14.5 0.00 0.00 0.00 76 1020.6
20260503205904 13 277 6.4 14.5 0.00 0.00 0.00 76 1020.8
20260503205825 13 278 6.4 14.5 0.00 0.00 0.00 76 1020.8
20260503205705 13 276 6.4 14.5 0.00 0.00 0.00 76 1020.9
20260503205604 13 275 6.4 16.1 0.00 0.00 0.00 76 1020.8
20260503205504 13 274 6.4 16.1 0.00 0.00 0.00 77 1020.8
20260503205404 13 276 6.4 16.1 0.00 0.00 0.00 77 1020.7
20260503205326 13 278 6.4 16.1 0.00 0.00 0.00 77 1020.7
20260503205204 13 276 6.4 16.1 0.00 0.00 0.00 77 1020.8
20260503205104 13 275 6.4 16.1 0.00 0.00 0.00 77 1020.9
20260503205004 13 276 6.4 16.1 0.00 0.00 0.00 77 1020.8
20260503204904 13 275 6.4 16.1 0.00 0.00 0.00 77 1020.5
20260503204804 13 274 6.4 16.1 0.00 0.00 0.00 77 1020.7
20260503204705 13 272 6.4 16.1 0.00 0.00 0.00 77 1020.6
20260503204625 13 270 6.4 14.5 0.00 0.00 0.00 77 1020.6
20260503204504 13 269 6.4 14.5 0.00 0.00 0.00 76 1020.7
20260503204404 13 268 4.8 14.5 0.00 0.00 0.00 76 1020.7
20260503204304 13 268 4.8 14.5 0.00 0.00 0.00 76 1020.5
20260503204227 13 266 4.8 14.5 0.00 0.00 0.00 75 1020.5
20260503204104 13 263 4.8 14.5 0.00 0.00 0.00 75 1020.7
20260503204004 13 262 4.8 14.5 0.00 0.00 0.00 75 1020.6
20260503203904 13 260 6.4 14.5 0.00 0.00 0.00 74 1020.9
20260503203805 13 257 6.4 14.5 0.00 0.00 0.00 74 1020.9
20260503203704 13 257 6.4 14.5 0.00 0.00 0.00 74 1020.6
20260503203625 13 256 6.4 14.5 0.00 0.00 0.00 74 1020.6
20260503203504 13 257 4.8 14.5 0.00 0.00 0.00 73 1020.9
20260503203404 13 257 4.8 14.5 0.00 0.00 0.00 73 1020.8
20260503203304 13 249 4.8 14.5 0.00 0.00 0.00 72 1020.7
20260503203204 13 249 4.8 14.5 0.00 0.00 0.00 72 1020.8
20260503203125 13 251 4.8 14.5 0.00 0.00 0.00 72 1020.8
20260503203004 13 249 4.8 12.9 0.00 0.00 0.00 72 1020.7
20260503202904 13 249 4.8 11.3 0.00 0.00 0.00 72 1020.9
20260503202804 14 253 4.8 11.3 0.00 0.00 0.00 71 1020.8
20260503202726 14 250 4.8 11.3 0.00 0.00 0.00 71 1020.8
20260503202604 14 255 4.8 9.7 0.00 0.00 0.00 70 1020.6
20260503202504 14 254 4.8 9.7 0.00 0.00 0.00 70 1020.9
20260503202404 14 258 4.8 12.9 0.00 0.00 0.00 69 1020.7
20260503202304 14 266 4.8 12.9 0.00 0.00 0.00 68 1020.8
20260503202204 14 268 4.8 12.9 0.00 0.00 0.00 67 1020.8
20260503202105 14 269 4.8 12.9 0.00 0.00 0.00 67 1020.8
20260503202004 14 266 4.8 12.9 0.00 0.00 0.00 67 1020.7
20260503201904 14 271 6.4 14.5 0.00 0.00 0.00 66 1020.8
20260503201804 14 273 6.4 14.5 0.00 0.00 0.00 66 1020.8
20260503201704 14 279 6.4 14.5 0.00 0.00 0.00 65 1020.6
20260503201605 14 280 6.4 14.5 0.00 0.00 0.00 65 1020.7
20260503201504 14 281 6.4 14.5 0.00 0.00 0.00 64 1020.8
20260503201425 14 282 6.4 14.5 0.00 0.00 0.00 64 1020.8
20260503201304 14 287 4.8 14.5 0.00 0.00 0.00 63 1020.8
20260503201205 14 294 4.8 14.5 0.00 0.00 0.00 62 1020.7
20260503201104 14 299 4.8 14.5 0.00 0.00 0.00 62 1020.8
20260503201004 14 310 3.2 14.5 0.00 0.00 0.00 62 1020.7
20260503200925 14 313 3.2 11.3 0.00 0.00 0.00 63 1020.7
20260503200804 14 319 3.2 11.3 0.00 0.00 0.00 63 1020.6
20260503200706 14 320 1.6 8.0 0.00 0.00 0.00 66 1020.5
20260503200605 14 322 1.6 4.8 0.00 0.00 0.00 67 1020.5
20260503200504 14 316 1.6 4.8 0.00 0.00 0.00 67 1020.8
20260503200427 14 313 1.6 4.8 0.00 0.00 0.00 67 1020.8
20260503200304 14 305 1.6 4.8 0.00 0.00 0.00 66 1020.6
20260503200204 14 301 1.6 6.4 0.00 0.00 0.00 67 1020.5
20260503200104 14 294 1.6 6.4 0.00 0.00 0.00 68 1020.6
20260503200025 14 291 1.6 6.4 0.00 0.00 0.00 68 1020.6
20260503195904 14 283 3.2 8.0 0.00 0.00 0.00 67 1020.6
20260503195806 14 283 3.2 8.0 0.00 0.00 0.00 67 1020.5
20260503195725 14 284 3.2 8.0 0.00 0.00 0.00 67 1020.5
20260503195604 14 285 3.2 8.0 0.00 0.00 0.00 66 1020.5
20260503195505 14 287 3.2 8.0 0.00 0.00 0.00 66 1020.5
20260503195405 14 289 3.2 8.0 0.00 0.00 0.00 66 1020.4
20260503195305 14 289 3.2 8.0 0.00 0.00 0.00 66 1020.6
20260503195204 14 291 3.2 8.0 0.00 0.00 0.00 66 1020.4
20260503195104 14 293 3.2 8.0 0.00 0.00 0.00 66 1020.5
20260503195004 14 298 3.2 8.0 0.00 0.00 0.00 67 1020.5
20260503194925 14 301 3.2 8.0 0.00 0.00 0.00 67 1020.5
20260503194805 14 304 3.2 6.4 0.00 0.00 0.00 67 1020.3
20260503194704 14 303 3.2 6.4 0.00 0.00 0.00 67 1020.4
20260503194625 14 304 3.2 6.4 0.00 0.00 0.00 68 1020.4
20260503194504 14 310 1.6 6.4 0.00 0.00 0.00 68 1020.1
20260503194404 14 315 1.6 6.4 0.00 0.00 0.00 68 1020.3
20260503194304 14 319 1.6 6.4 0.00 0.00 0.00 69 1020.5
20260503194227 14 321 1.6 6.4 0.00 0.00 0.00 69 1020.5
20260503194104 14 324 1.6 4.8 0.00 0.00 0.00 69 1020.3
20260503194005 14 329 1.6 4.8 0.00 0.00 0.00 69 1020.1
20260503193905 14 336 1.6 4.8 0.00 0.00 0.00 69 1020.3
20260503193825 14 338 1.6 4.8 0.00 0.00 0.00 69 1020.3
20260503193725 14 350 1.6 4.8 0.00 0.00 0.00 68 1020.2
20260503193604 14 13 1.6 4.8 0.00 0.00 0.00 68 1020.2
20260503193505 14 19 1.6 4.8 0.00 0.00 0.00 68 1020.2
20260503193404 14 25 1.6 4.8 0.00 0.00 0.00 67 1020.0
20260503193304 14 24 1.6 4.8 0.00 0.00 0.00 67 1020.1
20260503193204 14 26 1.6 4.8 0.00 0.00 0.00 68 1020.2
20260503193104 15 34 1.6 4.8 0.00 0.00 0.00 66 1020.1
20260503193004 15 53 1.6 4.8 0.00 0.00 0.00 67 1020.2
20260503192904 15 347 1.6 4.8 0.00 0.00 0.00 67 1020.2
20260503192804 15 339 1.6 4.8 0.00 0.00 0.00 66 1020.1
20260503192725 15 330 1.6 4.8 0.00 0.00 0.00 66 1020.1
20260503192604 15 321 1.6 4.8 0.00 0.00 0.00 66 1020.1
20260503192504 15 313 1.6 4.8 0.00 0.00 0.00 66 1020.1
20260503192404 15 300 1.6 4.8 0.00 0.00 0.00 66 1020.2
20260503192305 15 296 1.6 8.0 0.00 0.00 0.00 66 1020.0
20260503192204 15 292 1.6 8.0 0.00 0.00 0.00 65 1020.2
20260503192104 15 292 3.2 8.0 0.00 0.00 0.00 66 1020.0
20260503192027 15 290 3.2 9.7 0.00 0.00 0.00 66 1020.0
20260503191905 15 291 3.2 9.7 0.00 0.00 0.00 65 1020.0
20260503191804 15 293 3.2 9.7 0.00 0.00 0.00 65 1020.0
20260503191705 15 298 3.2 9.7 0.00 0.00 0.00 65 1020.1
20260503191604 15 296 3.2 9.7 0.00 0.00 0.00 66 1020.1
20260503191505 15 297 3.2 9.7 0.00 0.00 0.00 66 1020.2
20260503191404 15 301 3.2 9.7 0.00 0.00 0.00 66 1020.1
20260503191304 15 303 3.2 9.7 0.00 0.00 0.00 66 1020.1
20260503191204 15 307 3.2 9.7 0.00 0.00 0.00 66 1019.9
20260503191105 15 309 3.2 9.7 0.00 0.00 0.00 66 1020.2
20260503191004 15 317 3.2 8.0 0.00 0.00 0.00 66 1020.0
20260503190904 15 319 1.6 8.0 0.00 0.00 0.00 66 1020.0
20260503190804 15 320 1.6 8.0 0.00 0.00 0.00 66 1020.0
20260503190704 15 315 1.6 6.4 0.00 0.00 0.00 66 1020.0
20260503190604 15 318 1.6 6.4 0.00 0.00 0.00 66 1020.0
20260503190504 15 313 1.6 6.4 0.00 0.00 0.00 67 1020.0
20260503190404 15 319 1.6 6.4 0.00 0.00 0.00 67 1020.1
20260503190325 15 332 1.6 6.4 0.00 0.00 0.00 66 1020.1
20260503190206 15 331 1.6 6.4 0.00 0.00 0.00 67 1019.9
20260503190104 15 333 1.6 4.8 0.00 0.00 0.00 66 1020.3
20260503190004 15 319 1.6 4.8 0.00 0.00 0.00 67 1020.1
20260503185926 15 300 1.6 6.4 0.00 0.00 0.00 66 1020.1
20260503185804 15 288 1.6 6.4 0.00 0.00 0.00 67 1020.1
20260503185704 15 280 1.6 6.4 0.00 0.00 0.00 66 1020.0
20260503185604 15 284 1.6 9.7 0.00 0.00 0.00 66 1020.1
20260503185505 15 284 3.2 9.7 0.00 0.00 0.00 66 1020.1
20260503185404 15 281 3.2 9.7 0.00 0.00 0.00 67 1020.1
20260503185305 15 284 3.2 9.7 0.00 0.00 0.00 67 1020.0
20260503185205 15 287 3.2 9.7 0.00 0.00 0.00 66 1020.1
20260503185104 15 291 3.2 11.3 0.00 0.00 0.00 66 1020.2
20260503185004 15 293 4.8 11.3 0.00 0.00 0.00 66 1020.1
20260503184904 15 297 4.8 11.3 0.00 0.00 0.00 66 1020.1
20260503184804 15 297 4.8 11.3 0.00 0.00 0.00 66 1020.0
20260503184704 15 300 4.8 11.3 0.00 0.00 0.00 66 1020.1
20260503184625 16 301 4.8 11.3 0.00 0.00 0.00 66 1020.1
20260503184525 16 303 4.8 11.3 0.00 0.00 0.00 66 1020.1
20260503184404 16 308 4.8 11.3 0.00 0.00 0.00 66 1019.9
20260503184325 16 310 4.8 11.3 0.00 0.00 0.00 66 1019.9
20260503184204 16 309 3.2 11.3 0.00 0.00 0.00 66 1019.8
20260503184105 16 309 3.2 9.7 0.00 0.00 0.00 66 1019.7
20260503184004 16 309 3.2 9.7 0.00 0.00 0.00 67 1020.0
20260503183904 16 309 3.2 8.0 0.00 0.00 0.00 67 1019.8
20260503183804 16 314 1.6 8.0 0.00 0.00 0.00 66 1019.9
20260503183726 16 315 1.6 8.0 0.00 0.00 0.00 68 1019.9
20260503183604 16 312 1.6 8.0 0.00 0.00 0.00 66 1019.8
20260503183504 16 311 1.6 4.8 0.00 0.00 0.00 65 1019.8
20260503183425 16 308 1.6 4.8 0.00 0.00 0.00 65 1019.8
20260503183304 16 304 1.6 6.4 0.00 0.00 0.00 65 1019.8
20260503183204 16 306 1.6 6.4 0.00 0.00 0.00 66 1019.9
20260503183106 16 292 1.6 6.4 0.00 0.00 0.00 66 1019.8
20260503183006 16 286 1.6 6.4 0.00 0.00 0.00 65 1019.8
20260503182904 16 282 3.2 6.4 0.00 0.00 0.00 65 1019.9
20260503182804 16 274 3.2 6.4 0.00 0.00 0.00 66 1019.7
20260503182704 16 268 3.2 6.4 0.00 0.00 0.00 65 1019.8
20260503182604 16 262 3.2 6.4 0.00 0.00 0.00 64 1019.8
20260503182505 16 262 3.2 6.4 0.00 0.00 0.00 64 1019.8
20260503182404 16 262 3.2 6.4 0.00 0.00 0.00 65 1019.8
20260503182305 16 256 3.2 6.4 0.00 0.00 0.00 65 1019.8
20260503182204 16 256 3.2 6.4 0.00 0.00 0.00 65 1019.6
20260503182125 16 260 3.2 6.4 0.00 0.00 0.00 65 1019.6
20260503182006 16 263 1.6 6.4 0.00 0.00 0.00 65 1019.8
20260503181904 16 265 1.6 6.4 0.00 0.00 0.00 64 1019.7
20260503181804 16 264 3.2 6.4 0.00 0.00 0.00 64 1019.5
20260503181704 16 266 3.2 6.4 0.00 0.00 0.00 64 1019.8
20260503181604 16 274 3.2 6.4 0.00 0.00 0.00 64 1019.5
20260503181505 16 271 3.2 6.4 0.00 0.00 0.00 64 1019.8
20260503181404 16 274 3.2 6.4 0.00 0.00 0.00 63 1019.9
20260503181305 16 274 3.2 6.4 0.00 0.00 0.00 63 1019.7
20260503181205 16 274 3.2 6.4 0.00 0.00 0.00 62 1019.8
20260503181104 16 275 3.2 6.4 0.00 0.00 0.00 63 1019.6
20260503181005 17 277 3.2 9.7 0.00 0.00 0.00 63 1019.8
20260503180904 17 274 3.2 9.7 0.00 0.00 0.00 63 1019.9
20260503180804 17 279 3.2 9.7 0.00 0.00 0.00 63 1019.7
20260503180705 17 280 3.2 9.7 0.00 0.00 0.00 63 1020.0
20260503180604 17 277 3.2 9.7 0.00 0.00 0.00 63 1019.7
20260503180504 17 279 3.2 9.7 0.00 0.00 0.00 62 1019.8
20260503180425 17 279 3.2 9.7 0.00 0.00 0.00 62 1019.8
20260503180326 17 279 3.2 9.7 0.00 0.00 0.00 61 1019.7
20260503180226 17 273 3.2 9.7 0.00 0.00 0.00 62 1019.6
20260503180104 17 271 3.2 9.7 0.00 0.00 0.00 62 1019.7
20260503180005 17 265 3.2 9.7 0.00 0.00 0.00 61 1019.6
20260503175904 17 271 3.2 9.7 0.00 0.00 0.00 61 1019.6
20260503175825 17 271 3.2 9.7 0.00 0.00 0.00 61 1019.6
20260503175704 17 277 3.2 9.7 0.00 0.00 0.00 61 1019.7
20260503175604 17 284 3.2 9.7 0.00 0.00 0.00 61 1019.6
20260503175504 17 287 3.2 9.7 0.00 0.00 0.00 60 1019.8
20260503175425 17 282 3.2 9.7 0.00 0.00 0.00 60 1019.8
20260503175305 17 283 3.2 9.7 0.00 0.00 0.00 60 1019.7
20260503175205 17 287 3.2 9.7 0.00 0.00 0.00 60 1019.6
20260503175105 17 287 3.2 9.7 0.00 0.00 0.00 60 1019.6
20260503175004 17 288 3.2 9.7 0.00 0.00 0.00 59 1019.6
20260503174904 17 286 3.2 8.0 0.00 0.00 0.00 59 1019.5
20260503174804 17 284 3.2 8.0 0.00 0.00 0.00 58 1019.6
20260503174704 17 282 4.8 11.3 0.00 0.00 0.00 58 1019.6
20260503174604 17 278 4.8 11.3 0.00 0.00 0.00 58 1019.6
20260503174525 18 277 4.8 11.3 0.00 0.00 0.00 58 1019.6
20260503174426 18 279 4.8 11.3 0.00 0.00 0.00 58 1019.6
20260503174304 18 279 4.8 11.3 0.00 0.00 0.00 58 1019.7
20260503174204 18 281 4.8 11.3 0.00 0.00 0.00 57 1019.6
20260503174104 18 283 4.8 11.3 0.00 0.00 0.00 57 1019.6
20260503174004 18 286 4.8 11.3 0.00 0.00 0.00 57 1019.6
20260503173904 18 286 4.8 11.3 0.00 0.00 0.00 57 1019.7
20260503173804 18 290 4.8 11.3 0.00 0.00 0.00 57 1019.6
20260503173705 18 289 4.8 8.0 0.00 0.00 0.00 57 1019.6
20260503173604 18 291 4.8 9.7 0.00 0.00 0.00 57 1019.6
20260503173525 18 291 4.8 9.7 0.00 0.00 0.00 56 1019.6
20260503173405 18 290 4.8 9.7 0.00 0.00 0.00 56 1019.6
20260503173304 18 292 4.8 9.7 0.00 0.00 0.00 56 1019.5
20260503173204 18 293 4.8 12.9 0.00 0.00 0.00 56 1019.3
20260503173104 18 292 4.8 12.9 0.00 0.00 0.00 55 1019.5
20260503173004 18 292 4.8 12.9 0.00 0.00 0.00 56 1019.5
20260503172904 18 294 4.8 12.9 0.00 0.00 0.00 55 1019.6
20260503172804 18 292 4.8 12.9 0.00 0.00 0.00 55 1019.4
20260503172704 18 296 4.8 12.9 0.00 0.00 0.00 55 1019.5
20260503172604 18 299 4.8 12.9 0.00 0.00 0.00 55 1019.6
20260503172504 18 299 4.8 12.9 0.00 0.00 0.00 55 1019.5
20260503172425 18 299 4.8 12.9 0.00 0.00 0.00 55 1019.5
20260503172305 18 295 4.8 12.9 0.00 0.00 0.00 55 1019.2
20260503172204 18 291 4.8 9.7 0.00 0.00 0.00 55 1019.1
20260503172104 18 290 4.8 8.0 0.00 0.00 0.00 55 1019.2
20260503172004 18 291 3.2 8.0 0.00 0.00 0.00 55 1019.4
20260503171926 18 290 3.2 8.0 0.00 0.00 0.00 55 1019.4
20260503171804 19 289 4.8 8.0 0.00 0.00 0.00 55 1019.3
20260503171704 19 285 3.2 8.0 0.00 0.00 0.00 55 1019.3
20260503171625 19 283 3.2 8.0 0.00 0.00 0.00 55 1019.3
20260503171504 19 283 3.2 8.0 0.00 0.00 0.00 54 1019.3
20260503171425 19 283 3.2 8.0 0.00 0.00 0.00 54 1019.3
20260503171304 19 288 3.2 8.0 0.00 0.00 0.00 54 1019.3
20260503171204 19 291 3.2 8.0 0.00 0.00 0.00 54 1019.4
20260503171125 19 292 3.2 8.0 0.00 0.00 0.00 54 1019.4
20260503171004 19 288 4.8 8.0 0.00 0.00 0.00 54 1019.3
20260503170925 19 287 4.8 8.0 0.00 0.00 0.00 54 1019.3
20260503170804 19 285 4.8 8.0 0.00 0.00 0.00 54 1019.3
20260503170704 19 286 4.8 8.0 0.00 0.00 0.00 54 1019.4
20260503170604 19 284 4.8 8.0 0.00 0.00 0.00 53 1019.1
20260503170504 19 282 4.8 8.0 0.00 0.00 0.00 54 1019.3
20260503170404 19 280 3.2 8.0 0.00 0.00 0.00 53 1019.2
20260503170325 19 277 3.2 8.0 0.00 0.00 0.00 53 1019.2
20260503170204 19 276 3.2 8.0 0.00 0.00 0.00 54 1019.2
20260503170125 19 276 3.2 8.0 0.00 0.00 0.00 53 1019.2
20260503160104 21 278 6.4 12.9 0.00 0.00 0.00 49 1019.3
20260503151004 21 286 4.8 11.3 0.00 0.00 0.00 49 1019.8
20260503150904 21 293 4.8 11.3 0.00 0.00 0.00 50 1019.8
20260503150804 21 305 3.2 11.3 0.00 0.00 0.00 50 1019.9
20260503150704 21 303 4.8 11.3 0.00 0.00 0.00 50 1019.9
20260503150604 21 302 4.8 11.3 0.00 0.00 0.00 50 1019.8
20260503150505 21 301 3.2 11.3 0.00 0.00 0.00 50 1019.9
20260503150404 21 308 3.2 11.3 0.00 0.00 0.00 50 1019.9
20260503150304 21 316 3.2 9.7 0.00 0.00 0.00 50 1020.0
20260503150226 21 307 4.8 14.5 0.00 0.00 0.00 50 1020.0
20260503150104 21 295 4.8 14.5 0.00 0.00 0.00 51 1020.1
20260503140204 21 269 8.0 20.9 0.00 0.00 0.00 45 1020.6
20260503140104 21 271 8.0 20.9 0.00 0.00 0.00 44 1020.7
20260503131404 21 268 9.7 19.3 0.00 0.00 0.00 46 1021.0
20260503131305 21 271 9.7 19.3 0.00 0.00 0.00 45 1021.2
20260503131204 21 272 9.7 19.3 0.00 0.00 0.00 45 1020.9
20260503131105 21 273 9.7 20.9 0.00 0.00 0.00 45 1021.1
20260503131005 21 272 9.7 20.9 0.00 0.00 0.00 45 1021.0
20260503130904 21 276 9.7 20.9 0.00 0.00 0.00 45 1021.0
20260503130804 21 277 9.7 20.9 0.00 0.00 0.00 45 1021.1
20260503130724 21 278 8.0 20.9 0.00 0.00 0.00 45 1021.1
20260503130604 21 279 9.7 20.9 0.00 0.00 0.00 44 1020.8
20260503130504 21 278 8.0 20.9 0.00 0.00 0.00 44 1020.9
20260503130405 22 278 8.0 20.9 0.00 0.00 0.00 44 1020.9
20260503130304 22 279 8.0 20.9 0.00 0.00 0.00 44 1021.0
20260503130204 22 280 8.0 20.9 0.00 0.00 0.00 44 1021.1
20260503130105 22 278 6.4 17.7 0.00 0.00 0.00 44 1021.2
20260503120204 21 206 6.4 12.9 0.00 0.00 0.00 52 1021.3
20260503120125 21 203 6.4 12.9 0.00 0.00 0.00 53 1021.3
20260503110804 22 128 4.8 11.3 0.00 0.00 0.00 48 1021.3
20260503110703 22 140 4.8 11.3 0.00 0.00 0.00 47 1021.3
20260503110625 22 144 4.8 9.7 0.00 0.00 0.00 48 1021.3
20260503110504 22 165 4.8 9.7 0.00 0.00 0.00 48 1021.3
20260503110404 21 159 3.2 9.7 0.00 0.00 0.00 49 1021.3
20260503110304 21 177 4.8 9.7 0.00 0.00 0.00 48 1021.2
20260503110225 21 201 4.8 9.7 0.00 0.00 0.00 48 1021.2
20260503110104 21 198 4.8 11.3 0.00 0.00 0.00 48 1021.3
20260503100203 21 95 4.8 9.7 0.00 0.00 0.00 55 1021.8
20260503100104 21 95 4.8 9.7 0.00 0.00 0.00 55 1021.8
20260503090504 18 7 3.2 8.0 0.00 0.00 0.00 60 1022.2
20260503090404 18 357 3.2 8.0 0.00 0.00 0.00 59 1022.4
20260503090304 18 351 3.2 8.0 0.00 0.00 0.00 59 1022.4
20260503090204 18 353 3.2 8.0 0.00 0.00 0.00 59 1022.4
20260503081603 17 57 3.2 9.7 0.00 0.00 0.00 62 1022.6
20260503081503 17 69 3.2 9.7 0.00 0.00 0.00 62 1022.4
20260503081424 17 74 3.2 9.7 0.00 0.00 0.00 64 1022.4
20260503081303 17 71 3.2 9.7 0.00 0.00 0.00 63 1022.5
20260503081225 17 65 3.2 9.7 0.00 0.00 0.00 63 1022.5
20260503081104 17 60 3.2 9.7 0.00 0.00 0.00 65 1022.6
20260503081003 17 52 3.2 9.7 0.00 0.00 0.00 65 1022.5
20260503080904 17 36 3.2 9.7 0.00 0.00 0.00 65 1022.5
20260503080803 17 24 3.2 8.0 0.00 0.00 0.00 64 1022.7
20260503080703 17 8 3.2 8.0 0.00 0.00 0.00 65 1022.5
20260503080604 17 7 3.2 8.0 0.00 0.00 0.00 66 1022.5
20260503080504 17 6 3.2 8.0 0.00 0.00 0.00 66 1022.7
20260503080404 17 2 3.2 8.0 0.00 0.00 0.00 66 1022.5
20260503080303 17 2 3.2 8.0 0.00 0.00 0.00 66 1022.6
20260503080204 17 6 3.2 8.0 0.00 0.00 0.00 65 1022.6
20260503080104 16 13 3.2 8.0 0.00 0.00 0.00 66 1022.7
20260503072904 15 59 3.2 8.0 0.00 0.00 0.00 74 1022.7
20260503072824 15 62 3.2 8.0 0.00 0.00 0.00 74 1022.7
20260503072703 15 57 3.2 8.0 0.00 0.00 0.00 75 1022.8
20260503072605 15 54 3.2 8.0 0.00 0.00 0.00 75 1022.7
20260503072525 14 53 3.2 8.0 0.00 0.00 0.00 74 1022.7
20260503072403 14 53 3.2 8.0 0.00 0.00 0.00 75 1022.9
20260503072305 14 50 3.2 8.0 0.00 0.00 0.00 75 1022.7
20260503072204 14 50 3.2 6.4 0.00 0.00 0.00 76 1022.8
20260503072104 14 47 3.2 6.4 0.00 0.00 0.00 75 1022.8
20260503072004 14 44 3.2 6.4 0.00 0.00 0.00 75 1022.7
20260503071904 14 39 3.2 6.4 0.00 0.00 0.00 75 1022.8
20260503071804 14 38 3.2 6.4 0.00 0.00 0.00 74 1022.7
20260503071724 14 39 3.2 6.4 0.00 0.00 0.00 74 1022.7
20260503071603 15 34 3.2 6.4 0.00 0.00 0.00 75 1022.7
20260503071503 15 26 3.2 6.4 0.00 0.00 0.00 75 1022.7
20260503071403 15 22 3.2 6.4 0.00 0.00 0.00 74 1022.8
20260503071304 15 17 3.2 6.4 0.00 0.00 0.00 73 1022.8
20260503071224 15 17 3.2 6.4 0.00 0.00 0.00 73 1022.8
20260503071103 15 17 3.2 6.4 0.00 0.00 0.00 73 1022.9
20260503071004 15 14 3.2 8.0 0.00 0.00 0.00 73 1022.9
20260503070904 15 16 3.2 8.0 0.00 0.00 0.00 73 1022.7
20260503070805 15 15 3.2 8.0 0.00 0.00 0.00 73 1022.8
20260503070704 14 13 3.2 8.0 0.00 0.00 0.00 74 1022.8
20260503070603 14 16 3.2 8.0 0.00 0.00 0.00 74 1022.8
20260503070524 14 19 3.2 8.0 0.00 0.00 0.00 74 1022.8
20260503070404 14 22 3.2 8.0 0.00 0.00 0.00 74 1022.9
20260503070303 14 29 3.2 8.0 0.00 0.00 0.00 74 1022.9
20260503070203 14 31 3.2 8.0 0.00 0.00 0.00 74 1022.9
20260503070105 14 32 3.2 8.0 0.00 0.00 0.00 73 1023.0
20260503060303 10 349 4.8 9.7 0.00 0.00 0.00 84 1022.9
20260503060204 10 348 3.2 9.7 0.00 0.00 0.00 84 1022.8
20260503060125 10 348 3.2 9.7 0.00 0.00 0.00 84 1022.8
20260503055103 10 339 3.2 8.0 0.00 0.00 0.00 85 1023.0
20260503055005 10 340 3.2 8.0 0.00 0.00 0.00 85 1022.9
20260503054924 10 338 3.2 8.0 0.00 0.00 0.00 85 1022.9
20260503054804 10 332 3.2 9.7 0.00 0.00 0.00 85 1023.0
20260503054704 10 330 4.8 9.7 0.00 0.00 0.00 85 1022.8
20260503054604 10 332 4.8 9.7 0.00 0.00 0.00 86 1022.8
20260503054504 10 333 4.8 9.7 0.00 0.00 0.00 85 1022.9
20260503054403 10 333 3.2 9.7 0.00 0.00 0.00 86 1022.8
20260503054304 10 336 3.2 9.7 0.00 0.00 0.00 86 1023.0
20260503054204 10 338 3.2 9.7 0.00 0.00 0.00 86 1022.6
20260503054103 10 334 4.8 9.7 0.00 0.00 0.00 86 1022.7
20260503054004 10 334 4.8 11.3 0.00 0.00 0.00 86 1022.7
20260503053903 10 335 4.8 11.3 0.00 0.00 0.00 86 1022.8
20260503053804 10 338 4.8 11.3 0.00 0.00 0.00 86 1022.7
20260503053704 9 337 4.8 11.3 0.00 0.00 0.00 87 1022.6
20260503053624 9 337 4.8 11.3 0.00 0.00 0.00 86 1022.6
20260503053504 9 337 4.8 11.3 0.00 0.00 0.00 86 1022.7
20260503053403 9 337 4.8 11.3 0.00 0.00 0.00 86 1022.8
20260503053303 9 337 4.8 11.3 0.00 0.00 0.00 86 1023.0
20260503053225 9 337 4.8 11.3 0.00 0.00 0.00 86 1023.0
20260503053103 9 343 4.8 11.3 0.00 0.00 0.00 86 1022.8
20260503053003 9 344 4.8 8.0 0.00 0.00 0.00 86 1022.9
20260503052903 9 346 4.8 8.0 0.00 0.00 0.00 87 1022.7
20260503052803 9 349 3.2 6.4 0.00 0.00 0.00 86 1022.9
20260503052703 9 348 4.8 6.4 0.00 0.00 0.00 87 1022.8
20260503052603 9 348 3.2 8.0 0.00 0.00 0.00 87 1022.6
20260503052503 9 348 3.2 8.0 0.00 0.00 0.00 87 1022.7
20260503052403 9 349 3.2 8.0 0.00 0.00 0.00 87 1022.7
20260503052306 9 348 3.2 8.0 0.00 0.00 0.00 87 1022.6
20260503052203 9 344 3.2 9.7 0.00 0.00 0.00 87 1022.7
20260503052125 9 343 3.2 9.7 0.00 0.00 0.00 87 1022.7
20260503052004 9 344 3.2 9.7 0.00 0.00 0.00 87 1022.7
20260503051903 9 344 3.2 9.7 0.00 0.00 0.00 87 1023.0
20260503051803 9 345 3.2 9.7 0.00 0.00 0.00 87 1022.8
20260503051703 9 351 3.2 9.7 0.00 0.00 0.00 88 1022.9
20260503051604 9 355 3.2 9.7 0.00 0.00 0.00 88 1022.8
20260503051524 9 357 3.2 9.7 0.00 0.00 0.00 88 1022.8
20260503051403 9 355 3.2 9.7 0.00 0.00 0.00 88 1022.8
20260503051303 9 360 3.2 9.7 0.00 0.00 0.00 88 1022.7
20260503051225 9 8 3.2 6.4 0.00 0.00 0.00 88 1022.7
20260503051103 9 11 3.2 6.4 0.00 0.00 0.00 89 1022.9
20260503051003 9 10 3.2 6.4 0.00 0.00 0.00 89 1022.7
20260503050903 9 7 3.2 6.4 0.00 0.00 0.00 89 1022.7
20260503050824 9 6 3.2 6.4 0.00 0.00 0.00 89 1022.7
20260503050703 9 1 3.2 6.4 0.00 0.00 0.00 90 1022.8
20260503050603 9 360 3.2 6.4 0.00 0.00 0.00 90 1022.7
20260503050525 9 358 3.2 6.4 0.00 0.00 0.00 90 1022.7
20260503050404 9 354 3.2 6.4 0.00 0.00 0.00 90 1022.7
20260503050304 8 351 3.2 6.4 0.00 0.00 0.00 90 1022.7
20260503050204 9 349 3.2 6.4 0.00 0.00 0.00 91 1022.7
20260503050124 8 348 3.2 6.4 0.00 0.00 0.00 91 1022.7
20260503050003 8 346 4.8 6.4 0.00 0.00 0.00 91 1022.6
20260503045904 8 346 3.2 6.4 0.00 0.00 0.00 91 1022.6
20260503045803 8 344 4.8 6.4 0.00 0.00 0.00 91 1022.7
20260503045703 8 342 4.8 6.4 0.00 0.00 0.00 91 1022.7
20260503045604 8 342 4.8 6.4 0.00 0.00 0.00 92 1022.6
20260503045504 8 339 4.8 6.4 0.00 0.00 0.00 92 1022.5
20260503045403 8 338 4.8 8.0 0.00 0.00 0.00 92 1022.8
20260503045305 8 338 4.8 8.0 0.00 0.00 0.00 92 1022.5
20260503045203 8 335 4.8 8.0 0.00 0.00 0.00 93 1022.8
20260503045103 8 334 4.8 8.0 0.00 0.00 0.00 93 1022.6
20260503045024 8 333 4.8 8.0 0.00 0.00 0.00 93 1022.6
20260503044903 8 330 4.8 9.7 0.00 0.00 0.00 94 1022.4
20260503044824 8 329 4.8 9.7 0.00 0.00 0.00 94 1022.4
20260503044703 8 330 4.8 9.7 0.00 0.00 0.00 94 1022.4
20260503044603 8 330 4.8 9.7 0.00 0.00 0.00 94 1022.6
20260503044504 8 333 4.8 9.7 0.00 0.00 0.00 94 1022.6
20260503044404 8 336 3.2 9.7 0.00 0.00 0.00 94 1022.6
20260503044304 8 338 3.2 9.7 0.00 0.00 0.00 94 1022.5
20260503044203 8 342 3.2 9.7 0.00 0.00 0.00 93 1022.4
20260503044103 8 348 3.2 9.7 0.00 0.00 0.00 93 1022.5
20260503044003 8 357 3.2 9.7 0.00 0.00 0.00 93 1022.5
20260503043924 8 4 3.2 9.7 0.00 0.00 0.00 93 1022.5
20260503043824 8 18 1.6 8.0 0.00 0.00 0.00 92 1022.4
20260503043703 8 32 1.6 6.4 0.00 0.00 0.00 89 1022.5
20260503043604 8 38 1.6 4.8 0.00 0.00 0.00 89 1022.4
20260503043503 8 42 1.6 4.8 0.00 0.00 0.00 89 1022.4
20260503043403 8 43 1.6 4.8 0.00 0.00 0.00 89 1022.2
20260503043325 8 43 1.6 4.8 0.00 0.00 0.00 89 1022.2
20260503043203 8 47 1.6 4.8 0.00 0.00 0.00 89 1022.3
20260503043103 8 46 1.6 4.8 0.00 0.00 0.00 89 1022.5
20260503043004 8 45 1.6 3.2 0.00 0.00 0.00 89 1022.4
20260503042903 8 43 1.6 3.2 0.00 0.00 0.00 89 1022.3
20260503042803 8 44 1.6 3.2 0.00 0.00 0.00 89 1022.6
20260503042703 8 44 1.6 3.2 0.00 0.00 0.00 90 1022.4
20260503042603 8 45 1.6 3.2 0.00 0.00 0.00 89 1022.4
20260503042504 8 45 1.6 3.2 0.00 0.00 0.00 89 1022.5
20260503042403 8 40 1.6 3.2 0.00 0.00 0.00 89 1022.5
20260503042305 8 37 1.6 3.2 0.00 0.00 0.00 89 1022.5
20260503042203 8 37 1.6 3.2 0.00 0.00 0.00 89 1022.3
20260503042103 8 36 1.6 3.2 0.00 0.00 0.00 89 1022.4
20260503042005 8 36 1.6 3.2 0.00 0.00 0.00 89 1022.3
20260503041904 8 36 1.6 4.8 0.00 0.00 0.00 89 1022.3
20260503041805 8 38 1.6 4.8 0.00 0.00 0.00 88 1022.5
20260503041705 8 44 1.6 4.8 0.00 0.00 0.00 88 1022.3
20260503041603 8 51 1.6 4.8 0.00 0.00 0.00 88 1022.4
20260503041503 8 57 1.6 4.8 0.00 0.00 0.00 87 1022.4
20260503041403 8 64 1.6 4.8 0.00 0.00 0.00 87 1022.3
20260503041303 8 62 1.6 4.8 0.00 0.00 0.00 87 1022.3
20260503041204 8 59 1.6 4.8 0.00 0.00 0.00 87 1022.4
20260503041103 8 58 1.6 4.8 0.00 0.00 0.00 87 1022.3
20260503041003 9 60 3.2 4.8 0.00 0.00 0.00 87 1022.2
20260503040904 9 60 3.2 4.8 0.00 0.00 0.00 88 1022.4
20260503040803 9 57 3.2 4.8 0.00 0.00 0.00 88 1022.4
20260503040703 9 54 1.6 4.8 0.00 0.00 0.00 88 1022.2
20260503040603 9 46 1.6 4.8 0.00 0.00 0.00 88 1022.3
20260503040504 9 38 1.6 4.8 0.00 0.00 0.00 89 1022.3
20260503040404 9 31 1.6 4.8 0.00 0.00 0.00 89 1022.3
20260503040304 9 29 1.6 4.8 0.00 0.00 0.00 89 1022.3
20260503040203 10 30 1.6 4.8 0.00 0.00 0.00 90 1022.3
20260503040103 10 26 1.6 4.8 0.00 0.00 0.00 90 1022.3
20260503040004 10 20 1.6 4.8 0.00 0.00 0.00 90 1022.2
20260503035925 10 18 1.6 4.8 0.00 0.00 0.00 90 1022.2
20260503035805 10 14 1.6 4.8 0.00 0.00 0.00 90 1022.2
20260503035703 10 8 1.6 4.8 0.00 0.00 0.00 91 1022.1
20260503035604 10 6 1.6 4.8 0.00 0.00 0.00 91 1022.3
20260503035503 10 2 1.6 4.8 0.00 0.00 0.00 91 1022.3
20260503035403 10 357 3.2 6.4 0.00 0.00 0.00 92 1022.3
20260503035324 10 355 3.2 6.4 0.00 0.00 0.00 92 1022.3
20260503035225 10 350 3.2 6.4 0.00 0.00 0.00 92 1022.1
20260503035103 10 347 3.2 6.4 0.00 0.00 0.00 92 1022.3
20260503035006 10 345 3.2 6.4 0.00 0.00 0.00 92 1022.2
20260503034905 10 341 3.2 6.4 0.00 0.00 0.00 93 1022.1
20260503034806 10 343 3.2 6.4 0.00 0.00 0.00 93 1022.1
20260503034705 10 344 3.2 6.4 0.00 0.00 0.00 93 1022.1
20260503034627 10 345 3.2 6.4 0.00 0.00 0.00 93 1022.1
20260503034505 10 352 3.2 6.4 0.00 0.00 0.00 94 1022.1
20260503034426 10 355 3.2 6.4 0.00 0.00 0.00 94 1022.1
20260503034305 9 1 3.2 6.4 0.00 0.00 0.00 93 1022.0
20260503034226 9 2 3.2 6.4 0.00 0.00 0.00 93 1022.0
20260503034105 9 7 1.6 4.8 0.00 0.00 0.00 91 1022.1
20260503034026 9 8 1.6 4.8 0.00 0.00 0.00 91 1022.1
20260503033905 9 9 1.6 4.8 0.00 0.00 0.00 88 1022.0
20260503033805 9 4 1.6 4.8 0.00 0.00 0.00 88 1022.0
20260503033705 9 358 1.6 4.8 0.00 0.00 0.00 88 1022.1
20260503033605 9 350 1.6 4.8 0.00 0.00 0.00 89 1022.2
20260503033505 9 342 1.6 4.8 0.00 0.00 0.00 89 1022.2
20260503033426 9 339 1.6 4.8 0.00 0.00 0.00 89 1022.2
20260503033305 9 333 1.6 4.8 0.00 0.00 0.00 89 1022.2
20260503033205 9 331 1.6 4.8 0.00 0.00 0.00 89 1022.3
20260503033105 9 330 1.6 4.8 0.00 0.00 0.00 90 1022.2
20260503033005 9 328 1.6 4.8 0.00 0.00 0.00 89 1022.3
20260503032906 9 326 3.2 6.4 0.00 0.00 0.00 89 1022.1
20260503032805 9 324 3.2 6.4 0.00 0.00 0.00 90 1022.3
20260503032705 9 324 3.2 6.4 0.00 0.00 0.00 89 1022.4
20260503032628 9 322 3.2 6.4 0.00 0.00 0.00 89 1022.4
20260503032505 9 319 3.2 6.4 0.00 0.00 0.00 89 1022.3
20260503032405 9 317 3.2 6.4 0.00 0.00 0.00 90 1022.3
20260503032305 9 317 3.2 6.4 0.00 0.00 0.00 90 1022.4
20260503032205 9 315 3.2 6.4 0.00 0.00 0.00 90 1022.4
20260503032126 9 314 3.2 6.4 0.00 0.00 0.00 90 1022.4
20260503032026 9 314 3.2 6.4 0.00 0.00 0.00 90 1022.2
20260503031926 9 314 3.2 6.4 0.00 0.00 0.00 90 1022.3
20260503031805 9 315 3.2 6.4 0.00 0.00 0.00 90 1022.4
20260503031705 9 314 3.2 6.4 0.00 0.00 0.00 90 1022.3
20260503031605 9 311 3.2 6.4 0.00 0.00 0.00 89 1022.1
20260503031505 9 310 3.2 6.4 0.00 0.00 0.00 88 1022.3
20260503031405 9 308 3.2 6.4 0.00 0.00 0.00 88 1022.4
20260503031327 9 306 3.2 6.4 0.00 0.00 0.00 89 1022.4
20260503031205 9 307 3.2 6.4 0.00 0.00 0.00 88 1022.4
20260503031105 9 308 3.2 8.0 0.00 0.00 0.00 88 1022.5
20260503031005 9 309 3.2 8.0 0.00 0.00 0.00 88 1022.2
20260503030905 9 307 3.2 8.0 0.00 0.00 0.00 88 1022.3
20260503030805 9 309 3.2 8.0 0.00 0.00 0.00 88 1022.3
20260503030705 9 315 3.2 8.0 0.00 0.00 0.00 88 1022.2
20260503030626 9 319 3.2 8.0 0.00 0.00 0.00 87 1022.2
20260503030505 9 324 3.2 8.0 0.00 0.00 0.00 87 1022.2
20260503030405 9 327 3.2 8.0 0.00 0.00 0.00 88 1022.3
20260503030306 9 329 3.2 8.0 0.00 0.00 0.00 88 1022.2
20260503030205 9 328 3.2 8.0 0.00 0.00 0.00 88 1022.2
20260503030105 9 328 3.2 8.0 0.00 0.00 0.00 88 1022.2
20260503030005 9 328 3.2 6.4 0.00 0.00 0.00 88 1022.4
20260503025905 9 330 3.2 6.4 0.00 0.00 0.00 88 1022.5
20260503025805 9 332 3.2 6.4 0.00 0.00 0.00 88 1022.4
20260503025705 9 330 3.2 6.4 0.00 0.00 0.00 87 1022.3
20260503025606 9 332 3.2 6.4 0.00 0.00 0.00 87 1022.3
20260503025505 9 332 1.6 6.4 0.00 0.00 0.00 87 1022.3
20260503025426 9 331 3.2 6.4 0.00 0.00 0.00 87 1022.3
20260503025305 9 335 3.2 6.4 0.00 0.00 0.00 86 1022.3
20260503025205 9 340 3.2 6.4 0.00 0.00 0.00 86 1022.4
20260503025105 9 345 3.2 6.4 0.00 0.00 0.00 87 1022.5
20260503025005 9 347 1.6 6.4 0.00 0.00 0.00 87 1022.4
20260503024905 9 349 1.6 6.4 0.00 0.00 0.00 87 1022.5
20260503024806 9 353 1.6 6.4 0.00 0.00 0.00 88 1022.3
20260503024726 9 350 3.2 6.4 0.00 0.00 0.00 88 1022.3
20260503024605 9 350 3.2 6.4 0.00 0.00 0.00 87 1022.3
20260503024505 9 349 3.2 6.4 0.00 0.00 0.00 87 1022.3
20260503024406 9 349 3.2 6.4 0.00 0.00 0.00 87 1022.4
20260503024305 9 347 3.2 6.4 0.00 0.00 0.00 87 1022.4
20260503024205 9 343 3.2 6.4 0.00 0.00 0.00 87 1022.2
20260503024105 9 341 3.2 6.4 0.00 0.00 0.00 87 1022.2
20260503024005 9 340 3.2 6.4 0.00 0.00 0.00 87 1022.2
20260503023905 9 340 3.2 6.4 0.00 0.00 0.00 88 1022.2
20260503023806 9 339 3.2 6.4 0.00 0.00 0.00 88 1022.3
20260503023705 9 342 3.2 6.4 0.00 0.00 0.00 87 1022.2
20260503023605 9 341 3.2 6.4 0.00 0.00 0.00 87 1022.2
20260503023506 9 344 3.2 6.4 0.00 0.00 0.00 87 1022.3
20260503023405 9 345 3.2 6.4 0.00 0.00 0.00 87 1022.2
20260503023305 9 347 3.2 6.4 0.00 0.00 0.00 87 1022.2
20260503023206 10 345 3.2 6.4 0.00 0.00 0.00 86 1022.3
20260503023106 10 346 3.2 6.4 0.00 0.00 0.00 86 1022.3
20260503023005 10 345 3.2 6.4 0.00 0.00 0.00 86 1022.2
20260503022905 10 344 3.2 6.4 0.00 0.00 0.00 87 1022.3
20260503022805 10 344 3.2 6.4 0.00 0.00 0.00 87 1022.3
20260503022705 10 343 3.2 6.4 0.00 0.00 0.00 87 1022.2
20260503022626 10 344 3.2 6.4 0.00 0.00 0.00 87 1022.2
20260503022505 10 344 3.2 6.4 0.00 0.00 0.00 87 1022.2
20260503022405 10 344 3.2 6.4 0.00 0.00 0.00 87 1022.2
20260503022305 10 345 3.2 6.4 0.00 0.00 0.00 87 1022.4
20260503022205 10 345 3.2 6.4 0.00 0.00 0.00 87 1022.3
20260503022105 10 347 3.2 6.4 0.00 0.00 0.00 87 1022.4
20260503022005 10 350 3.2 6.4 0.00 0.00 0.00 87 1022.6
20260503021807 10 350 3.2 6.4 0.00 0.00 0.00 86 1022.4
20260503021705 10 355 1.6 4.8 0.00 0.00 0.00 86 1022.2
20260503021627 10 357 1.6 4.8 0.00 0.00 0.00 87 1022.2
20260503021505 10 359 1.6 4.8 0.00 0.00 0.00 86 1022.5
20260503021405 10 359 1.6 4.8 0.00 0.00 0.00 86 1022.4
20260503021305 10 2 1.6 4.8 0.00 0.00 0.00 86 1022.6
20260503021205 10 7 1.6 4.8 0.00 0.00 0.00 86 1022.5
20260503021104 10 5 1.6 4.8 0.00 0.00 0.00 85 1022.4
20260503021006 10 5 1.6 4.8 0.00 0.00 0.00 86 1022.4
20260503020906 10 6 1.6 4.8 0.00 0.00 0.00 86 1022.3
20260503020805 10 1 1.6 4.8 0.00 0.00 0.00 86 1022.3
20260503020706 10 352 3.2 8.0 0.00 0.00 0.00 87 1022.3
20260503020607 10 345 3.2 8.0 0.00 0.00 0.00 87 1022.6
20260503020505 10 343 3.2 8.0 0.00 0.00 0.00 86 1022.5
20260503020405 10 340 3.2 8.0 0.00 0.00 0.00 87 1022.7
20260503020305 10 334 3.2 8.0 0.00 0.00 0.00 87 1022.5
20260503020206 10 332 3.2 8.0 0.00 0.00 0.00 87 1022.2
20260503020105 10 332 3.2 8.0 0.00 0.00 0.00 87 1022.3
20260503020005 10 331 3.2 8.0 0.00 0.00 0.00 88 1022.3
20260503015904 10 331 3.2 8.0 0.00 0.00 0.00 88 1022.4
20260503015804 10 336 3.2 8.0 0.00 0.00 0.00 88 1022.6
20260503015704 10 339 3.2 6.4 0.00 0.00 0.00 88 1022.3
20260503015606 10 341 3.2 6.4 0.00 0.00 0.00 89 1022.3
20260503015505 10 342 3.2 6.4 0.00 0.00 0.00 89 1022.4
20260503015405 10 346 3.2 6.4 0.00 0.00 0.00 89 1022.4
20260503015305 10 347 3.2 6.4 0.00 0.00 0.00 89 1022.6
20260503015205 10 347 3.2 6.4 0.00 0.00 0.00 89 1022.3
20260503015105 10 346 3.2 6.4 0.00 0.00 0.00 89 1022.6
20260503015005 10 345 3.2 6.4 0.00 0.00 0.00 89 1022.4
20260503014905 10 344 3.2 6.4 0.00 0.00 0.00 89 1022.4
20260503014826 10 341 3.2 6.4 0.00 0.00 0.00 89 1022.4
20260503014705 10 339 3.2 6.4 0.00 0.00 0.00 90 1022.4
20260503014605 10 340 3.2 6.4 0.00 0.00 0.00 90 1022.4
20260503014505 10 339 3.2 6.4 0.00 0.00 0.00 90 1022.6
20260503014405 10 342 3.2 6.4 0.00 0.00 0.00 91 1022.4
20260503014326 10 344 3.2 6.4 0.00 0.00 0.00 91 1022.4
20260503014207 9 347 3.2 6.4 0.00 0.00 0.00 90 1022.6
20260503014126 9 348 3.2 6.4 0.00 0.00 0.00 90 1022.4
20260503014005 9 352 3.2 6.4 0.00 0.00 0.00 88 1022.4
20260503013926 9 353 1.6 6.4 0.00 0.00 0.00 88 1022.4
20260503013805 9 358 1.6 6.4 0.00 0.00 0.00 85 1022.4
20260503013706 9 2 1.6 6.4 0.00 0.00 0.00 85 1022.4
20260503013627 9 5 1.6 4.8 0.00 0.00 0.00 84 1022.4
20260503013505 9 6 1.6 4.8 0.00 0.00 0.00 85 1022.5
20260503013406 9 2 1.6 4.8 0.00 0.00 0.00 85 1022.3
20260503013305 9 358 1.6 4.8 0.00 0.00 0.00 85 1022.5
20260503013206 9 357 1.6 4.8 0.00 0.00 0.00 86 1022.5
20260503013105 9 358 1.6 4.8 0.00 0.00 0.00 87 1022.7
20260503013005 9 358 1.6 4.8 0.00 0.00 0.00 87 1022.5
20260503012905 9 358 1.6 4.8 0.00 0.00 0.00 87 1022.7
20260503012805 9 360 1.6 4.8 0.00 0.00 0.00 87 1022.5
20260503012705 9 358 1.6 4.8 0.00 0.00 0.00 87 1022.7
20260503012605 9 358 1.6 4.8 0.00 0.00 0.00 87 1022.6
20260503012505 9 356 1.6 4.8 0.00 0.00 0.00 86 1022.7
20260503012405 9 354 1.6 4.8 0.00 0.00 0.00 87 1022.6
20260503012305 9 360 1.6 4.8 0.00 0.00 0.00 86 1022.6
20260503012205 9 6 1.6 4.8 0.00 0.00 0.00 85 1022.6
20260503012128 9 6 1.6 3.2 0.00 0.00 0.00 84 1022.6
20260503012006 9 6 1.6 3.2 0.00 0.00 0.00 84 1022.4
20260503011905 9 6 1.6 3.2 0.00 0.00 0.00 84 1022.7
20260503011805 9 7 1.6 3.2 0.00 0.00 0.00 83 1022.6
20260503011705 9 13 1.6 3.2 0.00 0.00 0.00 83 1022.5
20260503011627 9 12 1.6 3.2 0.00 0.00 0.00 83 1022.5
20260503011505 9 21 1.6 3.2 0.00 0.00 0.00 82 1022.7
20260503011406 9 26 1.6 3.2 0.00 0.00 0.00 83 1022.7
20260503011306 9 26 1.6 3.2 0.00 0.00 0.00 83 1022.7
20260503011205 9 23 1.6 3.2 0.00 0.00 0.00 82 1022.6
20260503011105 9 22 1.6 3.2 0.00 0.00 0.00 82 1022.6
20260503011005 9 29 1.6 3.2 0.00 0.00 0.00 81 1022.5
20260503010928 9 32 1.6 3.2 0.00 0.00 0.00 81 1022.5
20260503010805 9 41 1.6 3.2 0.00 0.00 0.00 82 1022.5
20260503010705 9 46 1.6 3.2 0.00 0.00 0.00 80 1022.5
20260503010605 9 56 1.6 3.2 0.00 0.00 0.00 81 1022.6
20260503010525 9 57 1.6 3.2 0.00 0.00 0.00 81 1022.6
20260503010405 10 63 1.6 3.2 0.00 0.00 0.00 81 1022.6
20260503010305 10 63 1.6 3.2 0.00 0.00 0.00 81 1022.9
20260503010205 10 60 1.6 4.8 0.00 0.00 0.00 82 1022.8
20260503010126 10 55 1.6 4.8 0.00 0.00 0.00 81 1022.8
20260503010026 10 44 1.6 6.4 0.00 0.00 0.00 80 1022.7
20260503005905 10 24 1.6 6.4 0.00 0.00 0.00 80 1022.7
20260503005826 10 18 1.6 6.4 0.00 0.00 0.00 80 1022.7
20260503005705 10 5 3.2 6.4 0.00 0.00 0.00 80 1022.7
20260503005605 10 360 3.2 6.4 0.00 0.00 0.00 80 1022.7
20260503005526 10 355 3.2 6.4 0.00 0.00 0.00 81 1022.7
20260503005405 10 348 3.2 8.0 0.00 0.00 0.00 81 1022.6
20260503005305 10 343 3.2 8.0 0.00 0.00 0.00 81 1022.6
20260503005205 10 340 3.2 8.0 0.00 0.00 0.00 81 1022.6
20260503005105 10 337 3.2 8.0 0.00 0.00 0.00 81 1022.8
20260503005026 10 337 3.2 8.0 0.00 0.00 0.00 82 1022.8
20260503004905 10 335 3.2 8.0 0.00 0.00 0.00 82 1022.6
20260503004805 10 332 3.2 8.0 0.00 0.00 0.00 82 1022.8
20260503004705 10 329 3.2 9.7 0.00 0.00 0.00 82 1022.8
20260503004606 10 329 3.2 9.7 0.00 0.00 0.00 82 1022.5
20260503004505 10 328 3.2 9.7 0.00 0.00 0.00 82 1022.7
20260503004405 10 324 3.2 9.7 0.00 0.00 0.00 82 1022.9
20260503004305 10 326 3.2 9.7 0.00 0.00 0.00 82 1022.8
20260503004206 10 325 3.2 9.7 0.00 0.00 0.00 83 1022.8
20260503004127 10 325 3.2 9.7 0.00 0.00 0.00 83 1022.8
20260503004006 10 325 3.2 9.7 0.00 0.00 0.00 83 1022.9
20260503003905 10 326 3.2 9.7 0.00 0.00 0.00 83 1022.8
20260503003826 10 327 3.2 9.7 0.00 0.00 0.00 83 1022.8
20260503003705 10 332 3.2 8.0 0.00 0.00 0.00 83 1023.0
20260503003605 10 330 3.2 8.0 0.00 0.00 0.00 83 1022.9
20260503003505 10 332 3.2 8.0 0.00 0.00 0.00 83 1023.1
20260503003406 10 340 3.2 6.4 0.00 0.00 0.00 83 1023.0
20260503003326 10 342 3.2 6.4 0.00 0.00 0.00 83 1023.0
20260503003205 10 350 1.6 4.8 0.00 0.00 0.00 82 1023.0
20260503003126 10 352 1.6 4.8 0.00 0.00 0.00 82 1023.0
20260503003005 10 354 1.6 6.4 0.00 0.00 0.00 82 1022.9
20260503002905 10 357 1.6 6.4 0.00 0.00 0.00 82 1023.0